Wetbulb
55.45 56.17 55.37 55.03 54.78 55.09 55.25 55.04 54.76 54.65 54.48 54.13 53.91 53.89 53.80 53.55 52.82 52.84 52.23 52.71 53.20 56.01 57.96 59.78 59.10 59.03 56.11 50.91 49.71 59.92 63.07 63.54 61.46 59.67 55.45 53.53 49.44 46.80 43.69 44.63 45.39 43.42 45.61 48.56 48.96 48.88 47.95
55.49 55.57 54.87 55.48 55.14 55.19 54.64 54.37 54.22 54.04 54.04 53.55 53.05 53.16 52.98 52.98 52.72 52.01 52.27 51.99 52.49 54.80 56.76 59.05 58.82 58.62 52.49 45.30 56.99 59.44 59.15 59.74 59.13 58.08 55.95 54.30 49.97 49.74 46.38 45.68 44.29 46.49 47.10 46.87 48.10 47.87 48.00
54.43 55.53 54.28 53.62 53.78 54.08 53.95 53.66 53.19 53.06 52.72 52.38 52.47 52.58 52.33 52.16 52.05 51.61 51.54 52.23 52.45 53.86 55.53 57.80 58.71 55.28 49.33 48.11 56.65 56.66 57.66 57.17 58.45 57.90 54.46 56.02 55.63 51.82 48.85 45.74 48.39 47.53 43.27 45.12 45.95 47.14 45.93
55.52 54.15 53.67 53.94 53.69 53.19 52.95 52.70 52.40 52.28 52.43 52.23 52.10 51.68 51.53 51.38 51.23 50.98 51.47 51.88 52.42 53.53 54.70 56.39 58.13 53.44 45.74 55.23 54.25 55.70 56.51 55.72 56.59 58.59 57.49 57.48 56.21 52.17 48.73 48.08 46.37 43.11 42.18 37.17 44.05 46.63 47.26
53.64 53.19 53.26 53.46 53.45 52.96 52.73 52.26 51.91 51.85 51.74 51.79 51.44 51.20 51.24 51.03 50.95 50.89 51.02 51.56 52.07 53.27 54.39 55.38 53.78 50.61 43.50 55.12 51.43 52.75 52.97 53.74 55.61 57.73 57.12 57.60 55.01 50.01 48.41 42.62 38.90 38.80 32.73 35.86 39.66 46.04 45.64
53.44 53.32 53.45 53.45 52.99 52.52 52.21 51.80 51.55 51.42 51.40 51.12 51.03 50.88 50.90 50.82 50.81 50.63 50.88 51.47 51.58 52.14 52.21 55.15 53.30 45.88 48.12 46.30 51.53 53.15 52.85 53.30 53.21 54.13 52.67 51.99 49.18 44.11 42.86 39.73 31.15 33.01 33.16 35.85 35.96 41.74 42.99
53.10 52.61 53.25 52.80 52.20 51.61 51.67 51.43 51.00 51.02 50.81 50.64 50.70 50.71 50.57 50.61 50.46 50.48 48.42 45.09 41.07 44.11 48.56 45.26 44.32 45.15 47.02 51.33 53.15 51.08 52.05 52.21 52.17 49.47 43.81 47.84 41.15 38.09 40.40 38.95 39.70 37.97 35.49 34.36 37.65 42.07 39.12
52.90 52.58 52.78 52.51 51.83 51.42 51.17 51.10 50.80 50.85 50.75 50.36 50.43 50.30 50.41 50.00 50.36 50.50 47.01 40.44 42.49 42.99 35.69 48.30 47.51 48.22 50.02 51.16 45.39 48.80 52.00 46.40 46.20 42.66 43.51 40.62 37.47 41.11 43.10 43.05 41.32 38.06 35.22 33.52 37.59 41.06 38.91
52.59 51.80 52.38 52.17 51.62 51.38 50.98 50.86 50.65 50.58 50.45 50.10 49.68 49.85 49.80 49.78 49.29 46.84 43.84 43.23 48.22 45.80 34.98 44.15 47.67 46.81 47.08 49.67 44.98 45.28 48.99 46.30 42.51 41.44 40.86 36.17 39.01 43.18 41.96 40.05 37.72 34.96 33.86 34.04 34.14 37.72 37.04
52.13 51.45 52.06 51.81 51.57 50.97 50.55 50.49 50.27 50.21 49.59 49.12 49.29 49.58 49.69 48.69 43.73 43.78 41.66 47.81 48.31 45.60 30.18 38.25 42.23 45.81 47.38 48.05 43.33 49.41 50.22 46.83 43.80 39.99 41.12 40.13 42.94 40.74 38.93 38.24 38.21 32.08 38.10 37.87 36.24 31.76 26.10
51.61 51.39 51.84 51.48 51.18 50.70 50.38 50.30 50.32 49.94 49.10 49.87 50.28 50.57 50.61 50.47 43.73 40.32 44.64 48.06 47.05 41.58 22.96 38.18 41.16 50.09 47.52 43.72 44.17 44.78 50.32 47.03 40.21 40.61 41.04 37.52 39.57 38.73 35.86 37.48 39.22 35.09 38.93 36.18 35.05 30.17 26.99
50.76 51.28 51.74 51.21 50.75 50.44 50.00 50.01 50.18 49.61 50.15 50.57 50.57 50.84 51.27 49.02 46.03 44.86 45.72 47.81 43.59 28.39 22.95 35.97 40.65 40.67 40.52 42.60 42.98 44.87 45.39 47.88 46.34 42.13 41.21 39.04 41.42 40.00 38.80 40.50 39.61 39.86 35.60 34.10 32.23 27.72 16.74
50.66 50.92 51.07 50.83 50.30 50.16 49.93 49.73 49.59 49.76 50.25 50.33 50.58 51.21 49.52 48.66 42.74 47.02 47.83 43.02 27.14 21.40 36.30 34.36 36.73 39.24 38.73 38.08 39.32 41.22 39.52 38.32 34.63 30.85 33.38 37.98 36.68 38.95 40.38 35.47 37.76 35.85 29.31 17.49 17.22 20.08 18.28
50.47 50.19 50.03 50.38 50.03 49.48 49.05 49.58 49.50 50.29 50.44 50.86 51.50 51.02 48.86 48.32 48.52 46.53 44.64 33.35 22.08 34.08 32.44 38.56 38.53 38.29 35.05 37.68 37.54 38.90 37.69 34.83 37.28 34.73 28.00 25.10 23.15 35.06 38.55 35.50 32.93 32.44 30.53 20.13 17.49 16.71 22.06
50.26 49.65 50.39 49.91 49.91 49.02 49.47 49.44 49.40 50.24 51.41 52.10 50.74 44.82 46.05 47.46 48.76 46.23 39.63 25.53 26.74 34.53 36.86 36.08 36.85 33.02 33.91 37.08 36.49 36.79 36.09 34.98 35.88 35.96 28.05 24.78 28.82 38.22 38.65 39.04 38.12 32.19 27.29 32.85 24.74 24.86 16.45
49.88 49.57 50.37 49.83 49.54 49.03 49.16 49.33 49.93 50.43 52.15 51.07 42.29 40.66 43.56 48.45 48.69 44.80 36.54 29.82 32.01 39.50 39.63 38.79 31.15 34.86 30.47 33.80 32.93 34.50 34.51 36.82 36.47 38.51 37.84 36.35 28.32 36.43 37.96 39.18 38.54 34.13 35.88 23.69 22.04 11.74 16.31
49.80 49.56 49.63 49.60 49.30 48.86 48.89 49.16 49.57 51.15 52.00 50.24 40.75 37.81 45.02 49.41 47.94 39.61 31.37 31.84 37.34 41.27 42.11 38.10 33.63 33.72 33.25 33.05 33.93 33.03 32.93 36.53 38.57 37.98 38.50 37.91 32.08 30.99 36.98 32.36 31.37 31.75 28.78 30.40 28.70 24.77 17.36
49.38 49.39 49.09 49.09 49.09 48.66 48.70 48.89 48.90 50.58 51.73 46.18 40.63 33.02 44.88 47.94 33.83 36.33 32.70 34.30 41.37 40.51 43.21 42.01 40.14 36.32 33.54 34.42 33.21 32.21 31.55 36.43 40.57 41.45 35.27 38.95 33.71 25.06 28.67 35.54 37.46 34.93 31.83 31.09 25.03 19.12 23.59
49.24 49.26 48.51 48.66 48.58 48.89 48.31 48.81 48.51 49.62 50.86 45.24 35.68 39.15 46.02 42.87 30.24 33.79 37.70 39.40 41.26 40.34 40.74 40.68 38.74 39.20 38.35 33.97 32.01 35.09 36.25 38.86 40.93 40.41 35.47 38.02 29.79 20.95 26.59 32.30 34.88 32.55 33.98 34.42 33.97 31.34 24.98
48.78 48.58 48.04 47.81 47.71 48.22 48.63 48.76 48.91 49.08 50.78 45.34 40.08 29.02 35.68 39.77 38.51 37.47 36.89 37.44 37.37 42.82 41.46 42.15 40.11 39.65 36.97 36.52 37.47 35.02 34.26 38.74 39.89 40.79 44.02 41.64 33.46 24.35 22.30 25.97 32.27 28.88 32.46 33.45 32.82 28.28 27.11
48.88 48.26 47.71 47.83 47.37 47.40 47.88 48.06 48.81 49.57 49.65 44.76 40.89 33.60 38.66 28.73 34.18 35.39 38.50 38.60 36.83 37.15 41.52 41.54 38.49 38.75 37.31 33.75 34.81 33.86 35.82 36.36 38.78 42.23 39.06 38.67 26.88 28.63 31.86 33.39 32.90 31.35 31.81 33.15 30.85 32.26 29.34
48.58 48.07 47.45 47.53 47.02 46.66 46.51 46.61 47.97 48.85 48.32 42.31 38.37 37.40 39.46 36.00 37.99 35.63 36.95 35.84 37.12 38.56 39.94 37.77 37.42 39.41 39.44 36.51 37.39 34.27 36.60 35.47 34.23 36.37 35.68 36.86 24.53 31.90 25.31 32.46 32.48 30.14 33.03 34.09 34.24 34.34 34.11
48.47 47.86 47.39 47.18 46.92 46.44 45.91 45.91 46.83 47.98 45.78 41.73 43.45 44.23 41.17 37.61 34.66 32.83 33.91 37.46 38.64 40.50 41.13 42.12 40.55 39.18 39.11 40.51 41.69 41.10 42.61 41.37 40.03 36.05 34.74 35.91 31.17 27.06 21.30 32.18 31.22 28.39 31.92 34.22 38.05 39.25 38.33
48.23 47.60 47.40 47.02 46.66 46.25 45.94 45.58 45.74 46.22 45.97 43.10 43.35 42.33 38.97 33.52 34.88 35.60 40.38 39.53 39.12 40.69 38.66 41.28 41.96 40.67 42.96 45.15 43.89 42.15 40.41 39.52 39.69 38.85 38.72 35.64 33.74 33.03 27.40 28.24 21.24 36.07 40.20 40.32 37.98 39.73 40.50
47.58 48.15 47.30 46.94 46.55 46.07 45.77 45.58 45.40 45.42 45.79 42.24 44.42 40.96 39.28 35.97 37.17 39.31 40.11 38.10 39.72 40.20 40.04 41.18 42.59 43.19 44.92 42.17 37.58 34.23 34.15 36.51 36.88 38.83 38.96 39.56 35.35 32.41 29.54 28.54 29.36 34.81 39.94 37.80 36.76 36.11 39.96
47.28 48.61 46.96 46.93 46.39 46.10 45.68 45.45 45.39 45.13 45.03 38.79 43.94 43.53 39.93 37.04 37.43 40.93 40.32 38.78 35.59 34.10 37.33 41.14 44.49 45.87 43.96 39.88 36.32 28.08 27.72 34.18 32.72 34.73 39.87 39.02 38.91 34.95 32.61 26.98 22.26 34.41 40.23 42.74 40.36 34.12 40.18
46.79 48.09 47.26 46.48 46.79 46.27 45.66 45.33 45.39 45.29 44.76 39.43 38.83 42.65 39.99 36.70 39.05 39.44 39.47 39.38 42.61 38.27 36.33 38.58 40.56 40.80 42.74 36.71 33.02 29.67 27.09 34.89 29.84 31.84 33.46 34.59 35.08 31.99 31.73 30.03 31.53 37.51 39.51 43.00 31.67 32.68 39.16
46.22 47.25 46.93 45.78 45.84 46.59 45.79 45.76 45.66 45.39 44.76 39.36 36.93 41.08 38.45 35.57 35.78 39.87 41.81 39.88 42.95 41.48 38.39 40.64 38.41 39.45 38.28 34.34 33.83 32.76 31.79 33.42 32.02 34.29 34.26 33.00 32.31 31.59 33.09 29.95 25.31 39.38 39.40 36.21 39.21 39.90 39.24
46.03 46.71 46.72 45.66 45.35 45.45 46.12 45.62 45.62 45.29 44.91 42.86 33.76 40.00 41.73 36.41 34.45 40.53 40.49 41.76 42.55 44.45 42.44 43.32 39.93 39.48 39.79 35.80 34.64 36.16 32.97 34.57 32.55 29.18 37.09 33.61 34.95 33.66 33.55 32.34 38.21 40.87 41.87 40.82 40.64 39.16 38.37
MSLP
1021.34 1020.78 1020.23 1019.95 1019.57 1018.88 1018.49 1018.17 1017.71 1017.36 1016.89 1016.45 1016.09 1015.66 1015.27 1015.07 1014.90 1014.68 1014.25 1014.02 1013.64 1013.11 1012.48 1011.92 1012.06 1012.54 1012.80 1012.25 1010.77 1009.93 1009.67 1009.97 1010.76 1011.37 1011.83 1012.27 1012.56 1012.66 1012.69 1012.65 1012.55 1012.18 1012.26 1011.96 1011.59 1011.26 1011.20
1021.49 1020.76 1020.33 1019.76 1019.29 1018.88 1018.16 1017.66 1017.48 1017.09 1016.62 1016.26 1015.73 1015.33 1015.02 1014.79 1014.67 1014.39 1014.07 1013.60 1013.44 1013.00 1012.42 1011.61 1011.72 1012.27 1012.43 1011.11 1009.33 1009.61 1010.02 1010.46 1010.85 1011.24 1011.70 1012.07 1012.14 1012.14 1012.46 1012.25 1012.41 1011.99 1011.98 1011.95 1011.64 1011.29 1011.19
1021.43 1020.87 1020.29 1019.89 1019.21 1018.73 1018.24 1017.72 1017.29 1016.85 1016.30 1015.68 1015.39 1015.10 1014.77 1014.51 1014.25 1014.03 1013.81 1013.36 1012.93 1012.62 1012.21 1011.73 1011.51 1012.04 1011.73 1010.08 1009.27 1009.43 1009.77 1010.08 1010.42 1010.88 1011.39 1011.58 1011.91 1011.98 1012.12 1012.25 1012.14 1012.05 1012.31 1012.16 1011.88 1011.51 1011.24
1021.29 1020.83 1020.26 1019.74 1019.07 1018.45 1017.87 1017.19 1016.91 1016.60 1016.06 1015.60 1015.14 1014.79 1014.44 1014.17 1013.95 1013.69 1013.45 1013.09 1012.63 1012.14 1011.87 1011.53 1011.34 1011.82 1010.99 1009.49 1009.44 1009.60 1009.70 1009.89 1010.13 1010.45 1010.83 1011.58 1011.67 1011.88 1012.21 1012.29 1012.16 1012.43 1012.79 1012.83 1011.72 1011.10 1010.91
1021.49 1020.84 1020.16 1019.30 1018.72 1018.40 1017.83 1017.17 1016.69 1016.19 1015.76 1015.24 1014.81 1014.45 1014.11 1013.87 1013.73 1013.45 1013.09 1012.70 1012.18 1011.75 1011.56 1011.18 1011.28 1011.27 1010.42 1009.28 1009.34 1009.42 1009.56 1009.70 1010.16 1010.35 1011.06 1011.86 1012.26 1012.41 1012.45 1012.74 1013.16 1013.16 1013.40 1012.96 1012.11 1010.38 1010.41
1021.33 1020.62 1019.72 1019.30 1018.60 1018.06 1017.47 1016.96 1016.40 1015.92 1015.37 1014.87 1014.47 1014.22 1013.91 1013.64 1013.34 1013.10 1012.73 1012.26 1011.31 1011.17 1011.13 1010.76 1010.44 1011.21 1009.87 1009.19 1009.10 1009.27 1009.37 1009.86 1010.26 1010.78 1011.64 1012.21 1012.93 1013.12 1013.08 1013.09 1013.29 1013.50 1013.53 1012.89 1012.22 1010.99 1010.71
1021.02 1020.42 1019.59 1019.05 1018.37 1017.71 1017.20 1016.64 1016.06 1015.58 1015.17 1014.76 1014.29 1013.94 1013.56 1013.23 1012.91 1012.69 1012.63 1012.22 1011.41 1011.30 1010.36 1009.48 1009.48 1008.94 1007.89 1008.57 1008.95 1009.24 1009.48 1009.87 1010.33 1011.00 1011.83 1012.44 1013.22 1013.27 1013.15 1013.20 1013.12 1013.24 1013.41 1013.17 1012.30 1011.83 1011.54
1020.85 1020.18 1019.56 1018.90 1018.10 1017.46 1016.87 1016.35 1015.82 1015.41 1014.75 1014.27 1013.93 1013.61 1013.17 1012.90 1012.76 1012.49 1012.55 1012.66 1012.59 1013.11 1011.41 1009.65 1009.18 1008.67 1008.21 1008.36 1008.83 1009.39 1009.64 1010.11 1010.56 1011.35 1011.83 1012.83 1013.16 1013.27 1013.25 1013.28 1013.36 1013.49 1013.50 1013.28 1012.55 1011.88 1011.96
1020.64 1019.81 1019.41 1018.82 1018.03 1017.54 1016.84 1016.19 1015.59 1015.03 1014.44 1013.84 1013.49 1013.15 1012.90 1012.82 1012.64 1012.39 1012.50 1012.42 1012.59 1012.49 1012.15 1009.84 1009.26 1008.55 1008.44 1008.64 1008.92 1009.36 1009.74 1010.04 1010.80 1011.46 1011.92 1012.64 1012.66 1012.43 1013.03 1013.16 1013.49 1013.58 1013.78 1013.75 1013.81 1013.08 1012.87
1020.50 1019.63 1019.18 1018.61 1017.87 1017.44 1016.69 1015.85 1015.38 1014.83 1014.15 1013.58 1013.10 1012.71 1012.46 1012.48 1012.91 1012.51 1012.35 1012.45 1012.46 1012.51 1012.13 1009.95 1009.02 1008.11 1008.42 1008.70 1009.37 1009.67 1009.83 1010.22 1011.05 1011.67 1012.37 1012.78 1012.44 1012.57 1013.06 1013.26 1013.63 1013.95 1014.11 1014.15 1014.50 1014.73 1015.05
1020.45 1019.71 1018.98 1018.39 1017.72 1017.24 1016.53 1015.62 1015.10 1014.42 1013.79 1013.21 1012.66 1012.21 1011.86 1011.85 1011.84 1012.33 1012.51 1012.63 1012.65 1012.95 1011.15 1009.94 1009.10 1008.33 1008.57 1009.20 1009.56 1010.06 1010.00 1010.35 1010.98 1011.47 1012.47 1013.01 1012.69 1012.91 1013.29 1013.34 1013.62 1014.32 1014.49 1015.04 1015.44 1016.09 1016.33
1020.41 1019.82 1019.05 1018.37 1017.58 1016.92 1016.24 1015.43 1014.77 1013.94 1013.24 1012.59 1011.94 1011.36 1010.67 1010.17 1010.54 1011.21 1011.78 1012.39 1012.81 1012.44 1010.02 1009.20 1009.05 1008.83 1009.28 1009.62 1009.80 1010.32 1010.65 1010.73 1011.01 1011.57 1012.51 1012.98 1012.93 1013.23 1013.46 1013.59 1013.96 1014.62 1015.32 1015.82 1016.45 1017.32 1017.15
1020.37 1019.73 1018.99 1018.32 1017.54 1016.83 1016.06 1015.27 1014.43 1013.53 1012.81 1011.90 1011.18 1010.62 1009.89 1009.85 1010.35 1010.80 1011.62 1012.11 1012.44 1011.27 1009.53 1009.43 1008.94 1009.20 1009.62 1010.13 1010.62 1010.84 1011.18 1011.48 1011.73 1012.51 1013.21 1013.64 1013.77 1013.61 1013.72 1014.13 1014.44 1015.08 1016.11 1017.47 1018.23 1018.56 1016.76
1020.34 1019.58 1018.90 1018.16 1017.49 1016.72 1015.84 1015.01 1014.22 1013.27 1012.19 1010.88 1010.26 1010.12 1009.85 1009.71 1010.13 1010.89 1011.62 1011.74 1011.37 1009.21 1008.85 1008.89 1008.98 1009.70 1010.17 1010.56 1011.32 1011.44 1011.90 1012.20 1012.32 1012.53 1013.55 1013.97 1014.34 1013.92 1013.95 1014.22 1014.57 1015.44 1016.39 1017.78 1018.19 1018.17 1016.65
1020.36 1019.72 1018.90 1018.17 1017.50 1016.77 1015.83 1014.98 1014.04 1013.03 1011.51 1010.21 1009.92 1010.53 1010.55 1010.72 1010.84 1011.49 1011.70 1011.43 1010.77 1009.30 1008.55 1008.52 1009.45 1010.01 1010.56 1010.77 1011.36 1011.85 1012.19 1012.36 1012.57 1012.80 1013.38 1014.16 1014.07 1013.60 1013.80 1014.00 1014.61 1015.65 1016.39 1017.05 1017.68 1017.58 1016.98
1020.32 1019.67 1018.87 1018.17 1017.61 1016.89 1015.97 1015.11 1014.08 1012.86 1011.50 1010.78 1011.17 1011.33 1011.80 1011.31 1011.44 1011.67 1011.55 1011.14 1010.21 1008.76 1008.46 1008.63 1008.93 1009.62 1010.17 1010.71 1011.37 1011.79 1012.32 1012.20 1012.36 1012.50 1012.86 1013.28 1013.81 1013.93 1014.30 1014.48 1014.62 1015.08 1015.72 1016.95 1017.67 1018.21 1016.90
1020.32 1019.72 1018.89 1018.21 1017.67 1016.96 1016.09 1015.26 1014.11 1012.93 1011.82 1011.38 1011.66 1012.34 1012.24 1011.81 1011.79 1011.83 1011.77 1011.15 1009.93 1008.85 1008.47 1008.17 1008.40 1009.00 1009.85 1010.60 1011.07 1011.52 1011.95 1011.57 1011.72 1011.96 1012.63 1013.00 1013.90 1015.16 1014.86 1014.67 1014.47 1015.05 1015.48 1016.31 1017.01 1017.46 1016.83
1020.33 1019.80 1019.04 1018.36 1017.80 1017.11 1016.29 1015.53 1014.50 1013.36 1012.24 1012.27 1012.43 1013.07 1012.50 1011.96 1012.12 1012.17 1012.02 1011.45 1010.34 1009.16 1007.99 1007.64 1007.81 1008.47 1009.33 1010.31 1010.80 1010.97 1011.34 1010.92 1011.01 1011.29 1012.41 1012.95 1014.01 1015.10 1014.79 1014.22 1014.26 1014.64 1015.18 1015.82 1016.57 1016.54 1015.92
1020.36 1019.92 1019.27 1018.61 1018.03 1017.29 1016.56 1015.72 1015.11 1013.89 1012.97 1013.02 1013.33 1013.13 1012.45 1012.52 1012.47 1012.41 1011.62 1010.53 1009.74 1008.92 1008.16 1007.65 1007.51 1007.77 1008.94 1009.72 1010.38 1010.66 1010.84 1010.84 1010.90 1011.42 1012.08 1012.82 1014.06 1015.26 1014.99 1014.64 1014.36 1014.61 1014.74 1014.79 1015.33 1015.65 1014.50
1020.43 1019.96 1019.52 1018.90 1018.29 1017.51 1016.76 1016.00 1015.27 1014.32 1013.12 1013.19 1013.70 1013.74 1013.28 1013.05 1012.43 1012.11 1011.54 1010.84 1009.95 1009.00 1008.40 1007.87 1007.94 1008.32 1009.03 1009.46 1009.50 1010.47 1010.93 1011.06 1011.11 1011.60 1011.97 1012.68 1014.06 1014.87 1014.95 1014.59 1014.35 1014.45 1014.14 1014.28 1014.73 1014.75 1013.27
1020.34 1019.98 1019.59 1019.07 1018.60 1017.81 1017.03 1016.44 1015.49 1014.43 1013.34 1013.12 1013.78 1014.08 1013.38 1013.21 1012.64 1011.95 1011.12 1010.65 1009.77 1009.10 1008.61 1008.24 1008.28 1008.49 1008.86 1009.32 1009.70 1010.24 1010.76 1011.24 1011.54 1011.92 1012.35 1013.13 1014.46 1014.94 1014.63 1014.29 1014.18 1013.90 1013.65 1013.54 1013.55 1012.93 1012.89
1020.31 1019.95 1019.60 1019.24 1018.85 1018.29 1017.45 1016.83 1016.14 1015.07 1013.80 1014.00 1014.60 1014.64 1013.93 1013.01 1012.19 1011.74 1010.96 1010.37 1009.71 1009.20 1008.97 1008.70 1008.58 1008.72 1008.86 1009.44 1009.61 1009.89 1010.34 1010.94 1011.41 1012.21 1012.80 1013.59 1014.78 1015.22 1014.63 1013.57 1013.32 1013.04 1012.35 1012.02 1011.90 1011.53 1011.16
1020.31 1019.91 1019.61 1019.31 1018.95 1018.54 1017.98 1017.27 1016.54 1015.89 1015.29 1015.29 1015.30 1014.89 1014.59 1013.19 1012.22 1011.62 1010.68 1010.13 1009.65 1009.28 1009.20 1009.04 1008.81 1008.99 1009.43 1009.70 1009.59 1009.81 1009.98 1010.40 1010.79 1011.78 1012.91 1013.78 1014.61 1015.20 1014.54 1013.25 1012.63 1011.63 1010.29 1010.26 1010.09 1009.84 1009.60
1020.20 1019.89 1019.55 1019.25 1019.05 1018.64 1018.18 1017.71 1017.10 1016.63 1016.38 1016.43 1016.01 1015.49 1014.80 1013.54 1012.30 1011.37 1010.39 1009.93 1009.73 1009.49 1009.32 1009.19 1008.99 1009.16 1009.80 1009.62 1009.73 1009.89 1010.17 1010.57 1011.05 1011.64 1012.19 1013.51 1014.43 1014.75 1014.24 1013.11 1011.89 1009.75 1008.85 1008.68 1008.87 1008.41 1008.19
1019.90 1019.58 1019.27 1019.09 1018.95 1018.75 1018.28 1017.91 1017.53 1016.98 1016.76 1016.88 1016.44 1016.11 1015.37 1014.39 1013.04 1011.52 1010.46 1010.22 1010.11 1009.87 1009.74 1009.62 1009.65 1009.81 1009.75 1009.94 1010.29 1010.59 1010.88 1010.96 1010.99 1011.49 1012.13 1012.70 1013.88 1014.10 1013.74 1012.82 1011.01 1008.92 1008.28 1008.23 1008.17 1007.53 1007.20
1019.70 1019.28 1019.08 1018.86 1018.70 1018.52 1018.30 1018.00 1017.64 1017.34 1016.89 1016.80 1016.75 1016.45 1016.00 1014.98 1013.10 1012.33 1011.08 1010.27 1010.43 1010.42 1010.32 1010.16 1010.09 1009.95 1010.04 1010.46 1010.76 1010.92 1010.68 1010.70 1011.21 1011.63 1011.94 1012.52 1012.88 1013.44 1013.09 1012.35 1010.44 1008.11 1007.23 1007.16 1007.63 1007.30 1006.77
1019.46 1019.14 1018.88 1018.60 1018.48 1018.30 1018.04 1017.77 1017.68 1017.35 1017.05 1017.01 1017.05 1016.64 1016.29 1015.22 1013.20 1012.64 1011.69 1010.69 1009.98 1010.14 1010.30 1010.35 1010.44 1010.51 1010.58 1010.93 1011.19 1011.10 1010.92 1010.52 1010.93 1011.17 1011.60 1012.05 1012.30 1012.34 1012.23 1011.50 1009.55 1007.61 1006.97 1007.19 1007.47 1007.02 1006.57
1019.24 1018.96 1018.61 1018.37 1018.31 1018.11 1017.77 1017.54 1017.35 1017.10 1016.98 1017.00 1017.11 1016.78 1016.84 1015.95 1013.88 1012.75 1012.09 1011.60 1010.70 1009.98 1010.06 1010.43 1010.70 1010.81 1011.07 1011.28 1011.36 1011.18 1011.06 1010.70 1010.54 1010.37 1010.50 1010.69 1010.96 1011.05 1011.01 1010.48 1008.75 1006.63 1007.04 1007.03 1006.23 1006.07 1006.36
1018.93 1018.67 1018.44 1018.11 1017.91 1017.84 1017.49 1017.21 1017.11 1016.78 1016.67 1016.50 1017.05 1016.75 1016.53 1016.59 1014.51 1013.05 1012.16 1011.41 1011.05 1010.59 1010.35 1009.87 1010.11 1010.21 1010.56 1010.98 1011.44 1011.34 1011.31 1011.08 1010.78 1010.31 1009.38 1009.52 1008.94 1009.04 1009.07 1008.04 1006.68 1006.17 1006.12 1006.08 1006.19 1006.47 1006.49
Wind_Speed
20 19 20 21 21 22 23 25 22 22 21 20 21 21 21 19 20 20 19 19 20 22 20 16 10 8 3 5 7 1 5 18 10 9 8 7 5 3 6 6 6 5 5 9 8 9 5
24 22 22 22 23 25 24 25 25 24 21 19 20 21 20 20 20 18 20 19 20 21 21 12 11 7 4 8 4 9 6 7 7 9 7 8 6 7 4 5 6 3 4 4 5 7 6
21 21 24 26 26 25 26 26 25 23 19 18 19 19 20 20 18 18 20 20 19 22 20 21 14 6 7 10 3 7 5 8 9 12 8 10 3 3 3 2 2 2 3 7 6 7 6
22 25 24 24 24 25 25 23 24 23 22 20 19 19 18 19 18 17 19 19 20 20 18 21 13 7 6 6 3 6 5 3 1 7 12 4 4 3 1 2 2 4 3 2 8 12 9
23 22 22 23 25 25 26 25 23 22 21 20 19 17 17 17 17 18 19 19 19 18 16 18 8 5 5 1 12 6 5 6 4 5 6 8 4 3 2 4 2 1 3 6 7 7 5
22 25 23 24 23 24 24 23 22 22 22 19 19 17 16 16 16 16 16 19 19 14 9 5 2 4 4 7 6 7 3 4 4 10 7 3 3 2 2 3 7 5 4 4 5 3 1
23 23 24 24 23 24 24 23 22 22 21 20 19 18 17 16 16 15 9 6 3 3 8 4 8 5 6 8 6 11 6 5 5 4 4 4 4 7 8 5 5 2 2 4 5 6 4
22 24 24 24 23 24 23 23 22 22 20 18 17 17 18 16 14 15 6 2 3 5 9 8 11 4 11 9 7 12 7 6 5 7 6 5 3 5 6 7 8 6 5 5 7 4 6
23 24 23 24 24 24 24 24 22 22 22 20 20 19 16 11 15 8 2 5 7 7 2 10 5 9 5 3 6 12 8 5 7 7 8 6 2 11 6 3 2 2 3 4 5 6 5
23 23 24 25 24 24 24 24 24 23 24 21 20 19 16 7 5 3 4 9 7 7 3 6 7 6 4 2 5 5 5 5 3 9 7 1 1 3 4 4 3 1 4 1 4 4 4
23 24 24 24 25 24 25 24 24 25 23 21 22 21 20 16 4 1 5 8 6 4 3 9 5 5 5 1 14 8 1 3 8 9 5 6 4 5 1 2 4 3 5 5 4 4 5
24 25 25 25 24 24 24 25 25 25 23 24 25 26 25 11 7 6 3 9 1 2 3 6 6 9 7 7 4 6 4 4 0 5 8 5 2 3 5 2 3 4 4 4 4 4 3
23 25 26 25 25 26 26 26 27 27 27 28 28 28 14 4 2 9 8 4 3 4 1 7 9 10 12 5 7 7 6 3 4 6 3 5 2 2 3 4 3 5 5 4 5 1 8
22 24 26 26 25 24 26 27 28 28 30 31 24 16 6 2 5 10 4 3 4 5 7 6 12 13 7 8 4 6 7 4 3 4 5 5 4 8 5 6 6 5 6 5 7 4 5
22 24 24 25 25 26 27 28 29 31 32 20 8 3 4 6 7 3 1 3 4 5 7 11 15 9 8 5 7 4 4 5 4 3 6 5 4 4 6 3 6 4 5 4 1 2 3
22 24 24 24 25 26 27 29 30 30 24 15 3 3 6 5 5 3 1 3 4 2 18 10 5 3 6 7 6 6 8 7 6 9 3 1 4 2 3 3 3 6 4 3 3 1 6
21 23 25 24 25 25 27 29 30 30 23 12 4 4 5 8 3 2 3 5 2 14 4 2 5 7 8 6 4 6 13 4 12 10 7 2 4 1 5 6 8 3 2 2 2 4 4
21 22 24 24 24 25 27 28 30 29 23 8 2 4 4 5 4 1 2 3 5 6 3 3 5 8 10 10 5 6 8 1 12 12 8 4 5 4 10 6 8 4 5 5 4 6 5
20 21 22 23 24 23 26 28 30 30 18 3 3 2 2 3 4 3 5 1 5 8 6 5 6 6 13 7 6 4 5 3 9 8 9 6 1 1 4 3 2 5 7 6 8 0 13
18 20 21 22 22 23 24 26 28 29 17 3 1 3 4 2 1 2 4 4 5 6 5 5 5 11 5 4 2 7 3 2 4 4 7 8 4 6 6 3 4 3 5 6 9 6 10
16 17 19 20 22 23 24 27 28 29 23 3 2 1 1 3 2 2 2 3 4 3 4 6 6 4 6 3 4 5 5 4 4 2 4 4 2 2 6 8 5 8 10 11 12 16 12
16 15 17 19 20 21 23 24 25 29 22 4 3 4 5 4 1 2 2 2 3 3 5 4 5 7 8 5 1 5 7 5 5 2 3 2 2 1 7 10 8 7 12 14 15 18 19
16 14 15 17 18 19 21 22 23 25 15 3 3 2 2 6 2 1 3 4 1 2 4 3 2 5 6 3 4 3 4 4 8 8 6 6 4 1 6 5 7 3 7 10 6 8 9
15 14 13 14 16 18 18 19 20 22 18 2 2 2 2 4 1 3 1 3 2 3 3 2 4 4 2 2 3 3 3 2 6 6 7 6 4 1 4 5 1 1 6 7 10 11 10
14 13 13 12 13 14 16 17 17 18 19 2 3 3 2 3 4 6 2 2 3 3 1 3 3 1 2 2 2 2 1 2 4 6 8 5 4 2 2 2 7 4 5 5 6 7 4
14 15 13 12 12 12 12 14 15 15 16 4 0 2 2 3 2 6 5 5 4 2 1 2 2 3 2 1 1 4 3 1 3 3 5 7 4 3 1 3 4 4 2 4 5 5 4
14 17 12 14 14 12 12 13 12 13 13 4 2 4 2 3 3 3 3 3 5 4 4 3 2 1 2 2 2 3 3 3 5 7 4 5 3 5 5 4 7 8 4 6 2 4 2
13 16 11 13 15 16 13 13 14 12 9 4 4 2 1 3 8 5 3 2 5 2 3 3 3 2 1 2 3 1 1 2 1 4 7 7 6 4 4 4 8 5 4 3 5 1 1
13 15 11 13 14 15 14 13 13 14 11 4 0 3 2 3 6 4 11 14 11 11 3 3 2 2 4 3 1 1 1 1 1 3 3 4 7 5 8 7 7 4 6 1 1 2 2
Wind_Direction
330 334 342 346 333 324 324 325 326 319 315 314 319 317 318 323 322 321 315 317 306 309 311 265 221 214 195 209 243 229 326 172 168 166 190 209 223 206 182 193 240 217 241 249 252 281 276
340 349 341 337 337 338 331 331 332 330 322 325 315 320 317 319 319 319 314 311 307 307 310 267 211 184 233 221 191 156 161 139 182 168 202 204 221 221 231 251 198 267 215 277 294 308 308
340 338 349 341 338 334 340 336 334 328 324 314 322 314 315 315 318 319 308 306 303 302 297 308 195 175 233 213 198 157 210 177 188 187 196 215 220 173 167 248 296 100 20 339 298 271 260
343 351 345 339 333 342 336 338 337 331 324 324 318 317 313 316 319 314 316 308 302 299 286 304 193 187 243 205 219 164 194 239 211 184 198 82 40 106 118 270 33 61 45 304 249 232 233
349 341 334 335 343 338 336 339 336 331 329 325 323 324 319 321 316 315 311 311 293 291 281 297 181 197 229 121 184 188 199 196 179 93 103 93 35 179 161 143 113 195 225 219 299 234 178
341 336 345 340 341 341 340 338 336 331 328 329 331 328 330 325 319 320 314 313 283 279 260 236 141 167 242 200 163 175 200 214 151 119 103 120 73 97 174 150 192 205 235 256 244 316 347
342 340 343 341 347 343 344 341 337 335 339 334 330 329 325 321 317 316 333 336 12 216 220 251 167 244 158 152 131 177 193 160 122 98 133 146 121 179 190 219 242 320 248 277 270 281 304
336 340 346 343 344 342 343 340 338 332 331 330 326 320 318 325 329 317 319 253 68 62 309 212 198 206 112 132 121 166 150 136 149 158 119 85 188 230 221 224 243 287 262 283 296 318 9
341 341 345 342 344 338 341 340 337 332 328 329 327 324 319 332 329 326 262 248 122 85 293 172 217 178 149 148 138 178 149 115 139 142 143 143 199 198 228 299 229 290 274 275 258 334 349
340 343 344 342 341 340 339 338 340 333 326 326 324 318 310 303 337 335 316 119 107 99 288 128 170 147 121 174 105 151 172 126 150 153 161 305 103 112 175 225 190 270 3 2 40 48 251
343 343 344 345 342 343 340 343 339 334 331 328 320 313 303 287 190 130 105 113 116 85 164 161 120 122 125 344 125 196 22 47 152 145 133 197 185 134 139 189 162 207 80 59 44 40 11
349 341 343 346 345 347 340 345 338 339 330 327 323 320 312 289 175 177 191 133 158 88 163 115 133 146 122 134 64 129 129 48 18 124 151 60 41 109 189 191 84 104 67 25 43 74 323
349 346 347 351 349 348 347 345 343 337 333 323 321 321 316 168 168 166 137 166 51 226 237 116 133 138 123 101 110 135 136 103 128 113 137 171 195 107 75 92 52 88 72 353 348 292 235
352 349 349 352 351 351 349 347 344 340 328 315 305 321 350 38 121 139 157 77 221 50 63 134 130 130 106 123 98 132 139 146 314 79 99 138 321 156 187 173 179 160 152 169 226 220 277
351 351 347 353 355 354 350 351 346 342 332 341 37 15 17 21 91 89 250 67 325 8 116 126 113 125 130 125 123 123 148 173 193 190 129 122 290 127 155 129 124 194 202 197 326 269 42
350 349 350 355 355 354 355 354 351 344 350 10 47 46 24 355 30 13 336 320 275 134 112 136 76 170 147 154 110 138 165 195 202 195 175 13 110 122 136 92 268 159 171 86 353 334 274
353 351 355 358 356 355 357 357 354 355 359 350 41 45 327 342 352 351 17 341 17 121 23 317 156 135 135 161 124 164 181 232 190 186 166 136 99 239 126 206 189 170 244 119 117 173 220
353 353 358 358 359 358 0 359 358 0 359 33 52 59 307 337 61 332 344 303 303 241 291 22 142 106 151 168 133 182 183 243 187 167 183 164 121 191 222 226 191 163 184 174 149 263 238
353 355 0 1 2 358 0 359 0 357 10 322 55 297 305 358 49 21 284 328 16 1 346 16 40 127 138 169 129 186 101 28 160 155 157 161 273 16 328 23 191 187 207 207 221 260 242
357 360 1 2 1 360 1 3 359 356 353 76 36 25 326 12 225 102 43 5 342 315 5 12 70 118 142 152 154 159 105 63 107 99 160 131 160 170 195 200 107 238 229 210 202 235 270
355 359 360 3 3 3 6 5 360 356 348 95 14 304 263 300 299 203 216 233 347 50 9 18 20 104 141 94 84 107 95 88 59 90 71 99 153 321 277 263 226 220 235 235 236 249 251
351 359 359 360 5 3 5 6 5 2 351 75 34 359 347 284 193 298 172 250 343 32 26 360 93 70 53 87 27 149 127 165 185 145 122 94 254 335 283 259 240 247 245 242 243 251 255
342 354 356 356 1 3 8 5 9 11 15 33 328 303 277 279 292 13 233 187 250 100 354 54 75 93 69 43 48 69 74 88 146 146 162 160 148 161 265 329 323 284 235 229 215 225 244
335 344 350 356 357 357 4 7 7 13 17 310 357 291 320 288 18 238 79 99 111 12 127 344 42 87 183 16 14 18 16 107 149 170 144 139 135 212 283 340 321 232 201 193 215 260 252
328 337 343 350 352 354 354 2 5 10 10 13 330 346 326 289 307 288 128 141 101 86 83 82 43 111 45 25 85 126 219 166 227 169 155 139 150 217 262 245 273 254 210 204 189 284 232
324 332 332 341 340 343 349 349 352 3 8 21 332 298 306 298 200 313 305 185 175 194 347 116 29 22 36 103 114 188 188 99 147 120 179 146 146 191 227 277 257 260 233 131 120 264 199
323 326 330 338 333 327 336 341 340 345 1 28 288 323 268 274 272 21 308 293 178 175 164 139 185 127 68 145 177 191 244 162 173 174 171 172 185 212 212 257 279 253 255 141 292 248 229
316 321 331 342 327 328 333 329 328 330 343 43 266 298 12 289 277 257 297 308 325 80 156 171 72 302 95 171 183 290 143 253 333 163 168 177 169 195 177 217 266 210 119 213 232 291 303
320 315 322 330 325 317 319 320 316 326 324 349 281 297 220 232 272 312 263 252 227 235 305 155 205 142 186 108 130 106 353 354 14 269 224 200 193 186 190 213 234 240 228 32 28 263 292